Wetbulb
54.55 54.81 61.53 69.87 69.85 70.83 71.25 71.62 71.72 71.91 71.88 72.03 72.09 72.14 71.98 71.79 71.50 71.16 70.97 70.59 69.92 69.66 69.49 68.76 68.69 70.17 70.40 70.94 70.85 70.52 70.69 70.73 70.30 71.20 71.18 71.27 71.48 71.53 71.63 71.42 71.59 72.25 72.61
52.21 54.89 62.18 69.62 69.95 70.36 70.55 70.76 70.84 70.96 71.08 71.39 71.64 71.57 71.76 71.48 71.51 71.34 71.20 70.92 70.51 70.06 69.61 69.46 68.78 68.12 68.68 69.50 70.26 69.92 70.17 70.39 69.70 70.39 70.80 71.06 71.36 71.11 70.67 71.10 71.54 72.10 72.11
50.67 55.41 63.35 69.04 69.36 69.28 69.61 69.44 69.36 69.45 69.66 70.44 70.96 71.22 71.16 71.18 71.16 70.91 70.96 70.77 70.70 70.60 70.21 69.78 69.42 69.24 68.26 68.12 69.12 69.38 69.11 69.21 69.37 69.02 69.76 71.12 70.91 70.74 70.47 70.34 70.35 71.29 71.88
51.52 56.76 64.30 67.29 68.12 68.66 68.14 67.90 67.66 68.21 69.04 69.78 70.28 70.59 70.70 70.71 70.77 70.56 70.47 70.39 70.35 70.26 69.99 69.90 69.73 69.35 69.29 69.29 68.76 68.87 68.58 67.79 67.06 68.21 69.14 69.43 70.25 70.23 69.88 69.84 69.75 69.71 71.04
52.00 57.31 62.69 65.69 65.81 66.15 66.32 66.12 66.09 66.34 66.91 67.59 68.17 68.72 69.13 69.52 69.17 68.85 68.61 68.55 68.71 68.98 69.62 69.89 69.68 69.52 69.35 69.16 69.32 69.43 69.06 68.09 66.57 68.00 69.05 69.72 70.71 70.45 70.97 69.86 69.64 69.75 70.27
51.53 54.33 59.17 63.83 63.66 63.59 63.32 63.65 64.10 64.48 64.69 64.66 65.35 66.52 66.93 67.00 66.89 66.85 66.33 66.31 66.67 67.04 67.56 68.02 69.08 69.35 69.29 69.19 69.15 68.97 68.99 68.61 67.35 65.43 66.58 67.78 68.30 68.39 70.61 71.02 70.44 70.34 70.50
50.89 51.67 54.74 60.44 61.25 61.28 61.56 61.45 61.59 61.92 61.90 61.85 62.39 63.17 63.61 63.80 63.59 63.86 63.86 64.32 64.80 65.41 66.03 66.49 67.08 67.52 68.90 69.03 69.07 68.89 68.48 67.65 67.22 66.81 65.69 65.39 66.18 67.76 69.13 70.16 70.33 70.29 69.92
48.85 50.58 51.58 53.52 56.68 58.12 58.49 58.52 58.39 58.30 58.39 58.15 57.79 58.36 58.88 59.10 59.75 59.70 60.43 61.08 61.96 62.93 63.59 64.16 64.77 65.11 65.93 67.81 68.27 68.12 67.68 67.36 67.40 67.16 66.25 66.04 66.11 67.33 69.46 69.86 69.86 69.80 69.63
47.05 47.96 49.48 50.57 51.48 52.32 53.39 54.12 54.51 54.55 54.28 54.40 54.05 53.71 53.74 54.17 54.93 56.24 56.26 57.56 58.20 58.98 59.54 60.45 61.39 61.60 62.50 63.37 63.95 64.25 65.33 66.36 67.89 68.23 67.70 66.31 66.32 67.09 68.47 69.91 69.93 69.79 69.76
45.64 46.97 47.60 48.44 49.24 49.40 48.61 49.23 50.05 50.34 50.34 50.18 50.01 49.66 49.58 50.83 50.94 51.53 51.80 52.83 54.12 54.59 55.53 56.35 57.20 57.45 58.27 60.16 60.86 61.17 62.47 65.57 67.13 67.76 68.33 68.44 67.32 68.67 68.21 68.48 69.48 69.45 69.98
44.21 43.29 44.80 46.06 47.13 46.82 46.45 45.45 46.71 47.13 47.16 47.03 46.74 46.99 47.62 46.79 47.15 47.66 48.01 48.82 50.14 50.98 51.80 52.76 53.40 53.50 53.48 57.71 59.04 58.72 61.64 63.26 64.63 66.21 67.11 66.10 67.33 68.67 68.41 68.09 68.15 69.14 69.46
40.36 40.98 42.62 43.44 43.91 44.72 43.91 44.77 44.08 43.88 43.93 43.43 43.27 43.83 44.07 44.49 44.47 45.13 45.92 46.57 47.37 47.71 48.44 49.59 50.11 50.48 50.61 52.14 54.22 56.28 58.52 59.84 61.87 63.01 64.60 63.56 64.76 67.10 68.51 68.41 67.78 67.69 68.88
39.01 40.20 40.13 41.90 42.54 43.02 43.01 43.53 43.20 42.76 42.89 42.66 42.18 42.49 43.03 43.18 43.45 43.93 44.00 44.30 44.34 44.85 44.73 45.72 46.15 46.45 46.24 47.75 48.72 50.34 52.13 54.40 57.87 60.12 62.25 61.73 61.95 63.95 65.85 67.45 68.40 67.86 67.96
39.55 39.60 40.29 41.11 41.28 41.67 42.41 42.00 41.98 41.60 41.83 41.48 41.57 41.38 41.80 41.75 41.94 42.25 42.24 42.86 42.87 43.22 42.99 43.63 43.76 44.48 44.63 45.60 45.79 45.86 47.07 49.26 52.46 55.27 58.69 59.93 58.82 61.13 63.17 64.77 66.70 68.29 68.44
38.43 38.93 39.40 40.24 40.37 40.59 40.75 41.45 41.23 40.66 40.58 40.76 40.83 40.56 40.67 40.61 40.38 41.25 41.38 41.63 41.78 42.03 41.88 41.80 42.23 42.57 42.77 43.76 43.80 43.92 44.23 46.32 48.16 50.13 51.45 55.26 56.60 57.54 60.45 62.69 64.33 66.53 68.48
37.99 38.33 38.98 38.80 39.48 39.88 39.89 40.00 40.06 40.19 40.13 40.23 39.97 39.54 39.61 39.65 39.31 39.82 40.32 40.20 40.39 40.68 40.89 40.97 40.76 41.00 41.43 42.19 41.93 42.57 43.09 45.02 45.63 45.75 47.16 48.92 53.79 55.46 57.55 60.48 62.79 64.35 66.70
37.44 37.88 37.87 38.18 38.97 38.96 38.90 39.52 39.37 39.52 39.51 39.08 38.93 38.90 38.49 38.48 38.27 38.67 39.10 38.78 38.98 39.66 39.81 40.14 40.21 40.38 40.42 40.71 40.75 41.35 42.57 43.27 43.45 43.64 44.58 45.91 49.22 54.52 57.05 58.12 60.14 62.00 63.72
37.27 36.65 37.12 37.38 37.93 38.24 38.43 38.77 38.85 38.78 38.82 38.29 38.37 38.42 37.57 37.34 37.53 37.73 37.88 37.70 38.07 38.63 38.67 38.46 38.34 37.87 38.46 38.74 38.89 40.12 40.64 41.14 41.71 42.72 44.22 45.00 46.90 47.28 51.77 54.74 56.16 58.93 61.04
36.67 36.55 36.37 36.98 36.92 37.34 37.79 38.15 38.03 37.99 37.79 37.66 37.72 37.38 36.74 36.55 36.59 36.77 36.99 37.00 37.23 37.36 37.51 37.13 36.89 36.89 36.20 37.03 37.83 38.35 38.98 40.17 41.45 41.83 42.56 43.98 45.80 47.19 48.56 53.19 55.96 57.32 58.23
36.00 36.10 36.06 36.18 36.15 36.55 37.72 38.36 38.41 38.03 37.46 37.48 36.69 36.11 35.94 35.88 35.68 35.91 36.14 36.06 36.34 35.92 35.93 35.85 35.22 36.10 35.88 36.16 35.79 36.26 38.82 39.31 40.80 41.64 43.30 46.63 49.44 53.11 53.83 53.11 54.22 57.15 58.21
35.25 34.96 35.16 34.95 34.98 35.98 36.02 35.94 36.58 35.17 36.12 36.36 35.77 35.41 35.20 35.10 35.06 35.11 35.33 35.34 35.47 34.64 34.52 34.91 34.74 34.05 34.37 35.97 33.60 35.03 36.73 39.59 40.22 41.23 43.24 42.58 45.46 46.77 46.06 46.44 50.79 51.62 51.73
34.39 34.34 34.16 33.87 34.06 34.21 34.78 34.77 34.89 34.54 35.52 34.97 35.27 35.21 35.00 34.41 34.38 34.02 34.03 34.03 34.28 33.81 34.09 34.16 33.68 32.54 33.67 34.89 31.52 31.79 32.48 35.42 40.04 38.55 38.68 39.76 41.15 41.89 41.63 42.06 44.37 44.65 44.40
33.89 33.98 33.28 33.14 33.33 33.44 33.43 34.46 34.83 36.03 35.73 35.21 33.94 33.83 33.69 33.59 33.54 33.40 33.37 33.33 33.36 33.47 32.68 32.96 33.07 32.03 30.43 32.75 33.82 30.67 28.94 29.79 31.90 37.64 36.96 37.76 38.68 38.64 39.03 40.49 41.44 41.69 41.08
33.79 33.87 33.17 32.75 32.60 32.55 32.48 32.61 31.87 31.60 30.89 32.11 32.12 32.77 32.81 33.24 32.88 32.96 32.72 32.78 32.64 32.80 32.14 32.38 32.72 31.85 31.07 29.43 32.07 33.40 33.25 31.96 27.31 27.10 35.34 35.79 36.57 36.69 38.01 39.04 38.73 39.07 39.68
33.15 33.12 33.02 32.40 31.69 31.31 31.70 31.34 31.58 30.74 31.42 31.82 31.93 31.40 32.08 32.81 32.94 32.58 32.49 32.19 32.01 32.23 32.23 31.76 31.50 31.26 31.32 29.97 29.91 30.24 30.59 31.04 31.56 28.90 27.37 30.72 34.94 36.22 36.81 36.87 37.42 37.75 38.53
32.79 32.40 32.53 31.47 30.38 30.72 30.52 30.43 30.09 29.74 29.80 29.76 30.21 30.01 30.88 31.46 32.04 32.38 32.06 31.82 31.82 31.71 31.41 31.30 31.31 30.87 30.54 30.37 30.27 29.94 28.98 27.76 27.92 28.21 27.90 29.22 30.02 32.33 34.79 35.74 35.74 36.69 37.87
MSLP
1023.61 1023.05 1021.95 1020.43 1019.99 1019.51 1019.14 1019.11 1018.95 1018.83 1018.65 1018.38 1018.41 1018.43 1018.33 1018.16 1018.10 1018.07 1017.95 1017.87 1017.77 1017.73 1017.66 1017.48 1017.42 1017.31 1017.13 1017.01 1016.91 1016.74 1016.58 1016.45 1016.35 1016.21 1016.08 1015.90 1015.94 1015.88 1015.84 1015.77 1015.56 1015.17 1015.54
1025.02 1023.51 1022.05 1020.34 1020.21 1019.93 1019.70 1019.66 1019.61 1019.33 1019.16 1018.90 1018.80 1018.74 1018.60 1018.50 1018.41 1018.41 1018.31 1018.20 1018.13 1018.07 1018.02 1017.90 1017.77 1017.61 1017.54 1017.40 1017.27 1017.10 1016.90 1016.69 1016.55 1016.51 1016.24 1016.01 1016.07 1016.14 1016.07 1016.04 1015.86 1015.79 1015.78
1024.74 1023.37 1021.87 1021.04 1020.64 1020.51 1020.41 1020.21 1020.18 1019.94 1019.64 1019.36 1019.27 1019.03 1018.91 1018.78 1018.80 1018.72 1018.68 1018.60 1018.51 1018.40 1018.35 1018.26 1018.15 1017.99 1017.84 1017.73 1017.53 1017.36 1017.24 1017.04 1016.78 1016.56 1016.20 1015.80 1015.78 1016.28 1016.19 1016.23 1016.16 1016.16 1016.11
1024.83 1023.78 1022.56 1021.87 1021.48 1021.27 1021.11 1020.96 1020.81 1020.49 1020.30 1019.89 1019.68 1019.62 1019.43 1019.30 1019.18 1019.12 1019.02 1019.02 1018.88 1018.77 1018.65 1018.51 1018.39 1018.33 1018.21 1018.03 1017.80 1017.68 1017.53 1017.35 1017.16 1016.70 1015.97 1015.99 1015.92 1016.49 1016.46 1016.41 1016.33 1016.34 1016.31
1025.04 1024.29 1023.35 1022.67 1022.32 1022.14 1021.89 1021.71 1021.52 1021.20 1021.09 1020.80 1020.49 1020.30 1020.15 1020.02 1019.86 1019.87 1019.66 1019.54 1019.43 1019.24 1019.03 1018.81 1018.62 1018.50 1018.40 1018.23 1018.06 1017.89 1017.81 1017.68 1017.41 1016.64 1016.30 1016.35 1016.20 1016.35 1016.66 1016.56 1016.44 1016.45 1016.49
1025.44 1024.91 1024.37 1023.49 1023.19 1022.96 1022.72 1022.41 1022.25 1021.96 1021.77 1021.60 1021.44 1021.09 1020.88 1020.78 1020.70 1020.56 1020.38 1020.17 1020.05 1019.82 1019.56 1019.33 1019.00 1018.72 1018.50 1018.33 1018.18 1018.05 1018.00 1017.90 1017.52 1016.66 1016.59 1016.52 1016.49 1016.82 1016.62 1016.58 1016.62 1016.62 1016.54
1025.68 1025.46 1025.07 1024.33 1024.00 1023.79 1023.42 1023.22 1023.08 1022.72 1022.52 1022.29 1022.08 1021.79 1021.67 1021.49 1021.52 1021.31 1021.13 1020.88 1020.68 1020.40 1020.11 1019.83 1019.54 1019.18 1018.81 1018.53 1018.32 1018.16 1018.08 1018.01 1017.50 1016.86 1016.77 1016.72 1016.59 1016.98 1016.70 1016.50 1016.49 1016.57 1016.61
1026.18 1025.89 1025.65 1025.51 1025.09 1024.55 1024.20 1023.97 1023.80 1023.46 1023.30 1022.97 1022.78 1022.67 1022.60 1022.56 1022.36 1022.11 1021.96 1021.75 1021.39 1021.09 1020.77 1020.42 1020.09 1019.85 1019.47 1019.04 1018.76 1018.57 1018.35 1018.10 1017.24 1016.81 1016.93 1016.83 1017.00 1017.16 1016.80 1016.54 1016.37 1016.41 1016.44
1026.56 1026.20 1025.90 1025.53 1025.20 1025.16 1025.13 1024.87 1024.60 1024.21 1023.99 1023.76 1023.25 1023.35 1023.24 1023.12 1023.01 1022.81 1022.62 1022.42 1022.11 1021.77 1021.42 1021.05 1020.67 1020.38 1020.02 1019.70 1019.40 1019.11 1018.65 1018.16 1017.33 1016.81 1016.91 1016.67 1017.12 1017.20 1016.90 1016.61 1016.40 1016.21 1016.27
1026.96 1026.68 1026.27 1026.12 1025.66 1025.39 1025.29 1025.62 1025.34 1024.86 1024.46 1024.40 1024.29 1024.00 1023.77 1023.47 1023.48 1023.39 1023.30 1023.06 1022.80 1022.42 1022.07 1021.61 1021.16 1020.75 1020.41 1020.04 1019.79 1019.40 1018.83 1018.00 1017.25 1016.99 1016.67 1016.55 1017.12 1016.97 1016.82 1016.66 1016.42 1016.16 1016.12
1027.20 1027.24 1026.92 1026.57 1026.24 1025.89 1025.82 1025.95 1025.53 1025.18 1025.03 1025.10 1024.86 1024.51 1023.98 1023.95 1023.93 1023.74 1023.95 1023.68 1023.24 1022.88 1022.53 1022.12 1021.71 1021.19 1020.67 1020.03 1019.83 1019.64 1018.97 1018.35 1017.84 1017.20 1016.92 1017.34 1017.36 1016.84 1016.45 1016.38 1016.35 1016.13 1015.91
1027.58 1027.79 1027.58 1027.34 1026.92 1026.51 1026.42 1026.26 1026.09 1026.00 1026.00 1025.94 1025.52 1024.98 1024.71 1024.57 1024.68 1024.42 1024.17 1023.95 1023.47 1023.35 1022.80 1022.40 1021.99 1021.46 1020.97 1020.48 1020.05 1019.61 1019.19 1018.89 1018.33 1017.91 1017.39 1017.77 1017.51 1016.98 1016.53 1016.15 1015.85 1015.86 1015.75
1028.38 1028.40 1028.44 1027.79 1027.59 1027.17 1027.12 1026.80 1026.69 1026.64 1026.52 1026.45 1026.17 1025.81 1025.59 1025.28 1025.14 1024.80 1024.45 1024.23 1023.91 1023.68 1023.10 1022.66 1022.10 1021.71 1021.52 1021.18 1020.74 1020.21 1019.79 1019.23 1018.55 1018.05 1017.61 1017.79 1017.75 1017.34 1016.69 1016.24 1015.84 1015.34 1015.21
1028.43 1028.65 1028.55 1028.29 1028.05 1027.96 1027.71 1027.61 1027.58 1027.33 1027.16 1027.11 1027.00 1026.70 1026.20 1025.90 1025.68 1025.34 1025.02 1024.83 1024.56 1024.24 1023.79 1023.36 1022.86 1022.42 1021.93 1021.35 1021.00 1020.52 1020.13 1019.60 1018.99 1018.34 1017.63 1017.56 1017.60 1017.35 1016.85 1016.33 1015.75 1015.37 1014.99
1028.84 1029.10 1029.04 1028.84 1028.59 1028.43 1028.24 1028.04 1027.92 1027.95 1027.93 1027.85 1027.64 1027.55 1027.29 1026.91 1026.54 1026.26 1025.86 1025.56 1025.28 1024.95 1024.44 1023.89 1023.35 1022.81 1022.27 1021.72 1021.16 1020.63 1020.14 1019.60 1019.10 1018.59 1017.93 1017.46 1017.21 1016.91 1016.62 1016.24 1015.78 1015.23 1014.71
1029.18 1029.31 1029.37 1029.31 1029.12 1028.92 1028.72 1028.75 1028.67 1028.61 1028.46 1028.23 1028.22 1028.29 1028.08 1027.74 1027.44 1027.04 1026.50 1026.28 1026.00 1025.66 1025.22 1024.61 1023.97 1023.32 1022.64 1022.04 1021.43 1020.82 1020.22 1019.55 1018.97 1018.49 1017.89 1017.26 1016.91 1016.56 1016.21 1015.80 1015.40 1015.03 1014.54
1029.42 1029.57 1029.54 1029.58 1029.57 1029.35 1029.30 1029.07 1028.95 1028.96 1028.81 1028.83 1028.79 1028.81 1028.69 1028.53 1028.12 1027.58 1027.06 1026.66 1026.49 1026.19 1025.71 1025.06 1024.40 1023.84 1022.96 1022.31 1021.55 1020.87 1020.32 1019.72 1019.12 1018.36 1017.74 1017.07 1016.44 1015.90 1015.63 1015.29 1015.00 1014.66 1014.23
1029.55 1029.70 1029.96 1029.90 1029.79 1029.64 1029.56 1029.49 1029.41 1029.51 1029.40 1029.42 1029.32 1029.15 1029.21 1029.03 1028.83 1028.26 1027.76 1027.41 1027.11 1026.43 1025.88 1025.41 1024.80 1024.15 1023.49 1022.69 1021.85 1021.24 1020.67 1019.78 1019.05 1018.24 1017.52 1016.82 1016.11 1015.56 1015.20 1014.78 1014.57 1014.34 1014.08
1029.79 1029.95 1030.14 1030.13 1030.03 1029.99 1029.93 1029.89 1029.89 1029.90 1029.70 1029.62 1029.45 1029.35 1029.34 1029.16 1028.96 1028.54 1028.13 1027.80 1027.52 1026.95 1026.28 1025.91 1025.32 1024.77 1023.91 1023.06 1022.13 1021.30 1020.50 1019.60 1018.89 1018.16 1017.14 1016.52 1015.94 1015.40 1014.78 1014.49 1014.25 1014.03 1013.83
1029.98 1030.16 1030.28 1030.34 1030.42 1030.21 1029.97 1029.81 1029.65 1029.58 1029.65 1029.67 1029.58 1029.60 1029.39 1029.10 1028.89 1028.53 1028.14 1027.96 1027.67 1027.17 1026.62 1026.13 1025.71 1025.26 1024.57 1023.59 1022.47 1021.27 1020.14 1019.46 1018.42 1017.51 1016.78 1016.15 1015.42 1015.04 1014.82 1014.59 1014.23 1013.35 1013.39
1030.17 1030.29 1030.43 1030.56 1030.65 1030.38 1030.13 1029.85 1029.66 1029.68 1029.71 1029.66 1029.92 1029.84 1029.64 1029.44 1029.22 1028.76 1028.19 1027.70 1027.38 1026.94 1026.59 1026.38 1025.91 1025.31 1024.58 1023.94 1022.89 1021.18 1019.60 1018.16 1017.43 1016.91 1016.97 1016.64 1015.76 1015.81 1015.73 1015.20 1014.50 1014.32 1013.74
1030.01 1030.30 1030.50 1030.67 1030.75 1030.75 1030.61 1030.59 1030.52 1030.27 1029.93 1030.04 1029.79 1029.63 1029.53 1029.36 1029.12 1028.77 1028.56 1028.18 1027.81 1027.47 1026.87 1026.38 1026.05 1025.57 1024.98 1024.62 1023.73 1022.27 1019.18 1017.93 1017.20 1017.90 1017.49 1016.81 1016.41 1015.99 1015.92 1015.58 1014.93 1015.03 1014.62
1029.66 1030.12 1030.52 1030.77 1030.87 1030.99 1031.01 1030.74 1030.40 1029.94 1029.58 1029.36 1029.55 1029.43 1029.46 1029.41 1029.25 1029.10 1028.79 1028.29 1027.80 1027.51 1026.96 1026.66 1026.21 1025.69 1025.10 1024.79 1024.37 1024.37 1021.80 1019.42 1018.92 1017.51 1017.36 1016.98 1016.44 1016.55 1016.21 1015.66 1015.07 1015.05 1014.88
1029.31 1030.12 1030.55 1030.80 1030.93 1031.09 1031.17 1030.80 1030.56 1030.15 1029.80 1029.79 1029.78 1029.65 1029.37 1029.21 1029.13 1029.04 1028.80 1028.45 1027.94 1027.42 1026.94 1026.46 1026.01 1025.94 1025.43 1024.44 1024.04 1023.67 1023.20 1022.28 1020.70 1017.57 1017.17 1017.18 1017.28 1016.49 1016.22 1015.63 1015.45 1015.09 1014.65
1029.37 1029.94 1030.41 1030.75 1030.99 1031.12 1031.06 1031.07 1030.75 1030.46 1030.27 1030.01 1029.80 1029.43 1029.09 1028.77 1028.68 1028.53 1028.39 1028.06 1027.63 1027.29 1026.90 1026.52 1026.16 1025.69 1025.25 1024.77 1024.20 1023.61 1022.70 1022.13 1021.32 1020.38 1017.02 1016.73 1016.61 1016.34 1016.31 1015.82 1015.48 1014.98 1014.42
1029.25 1029.87 1030.32 1030.61 1030.86 1030.96 1030.97 1031.01 1030.91 1030.72 1030.43 1030.04 1029.68 1029.31 1028.87 1028.57 1028.24 1028.07 1027.97 1027.66 1027.20 1026.74 1026.45 1026.14 1025.83 1025.47 1025.02 1024.35 1023.86 1023.32 1022.67 1021.81 1020.87 1020.17 1018.56 1017.07 1016.53 1016.35 1016.12 1015.71 1015.15 1014.76 1014.13
Wind_Speed
12 20 26 13 10 11 14 15 16 16 15 15 16 15 15 15 16 16 17 17 17 16 16 16 16 15 15 14 14 15 15 14 13 13 10 8 7 5 5 3 3 9 9
14 16 23 19 21 17 16 18 18 18 17 16 16 16 17 16 16 16 16 16 16 16 16 15 15 14 14 13 14 15 14 13 12 11 9 5 8 6 4 3 4 6 9
12 14 16 22 22 20 22 23 21 20 20 20 18 18 17 17 17 17 17 17 17 16 15 15 14 14 14 13 12 13 14 14 11 8 8 6 7 7 6 4 2 4 8
12 14 15 22 23 23 23 22 21 22 22 22 22 24 22 21 21 20 19 18 17 16 14 14 13 13 12 12 12 12 12 12 11 10 4 7 6 7 5 4 2 2 5
11 14 16 21 22 22 22 22 21 22 21 21 21 22 21 22 21 21 21 21 21 20 19 16 13 12 11 11 11 11 11 11 9 8 7 7 5 8 10 5 2 3 4
9 11 17 20 21 20 20 20 21 22 22 21 21 22 22 22 22 22 21 20 20 20 20 19 19 15 13 11 10 11 11 12 14 7 6 5 6 9 9 9 6 4 2
9 10 12 19 19 20 21 21 21 22 21 22 22 23 22 23 22 22 22 21 20 20 20 20 20 18 16 14 12 12 10 10 9 8 7 6 5 10 10 9 7 6 6
8 8 9 13 17 20 21 21 21 22 22 22 23 22 23 22 23 22 23 22 21 21 20 20 21 21 19 18 16 15 12 8 9 6 7 8 7 11 12 11 8 8 8
9 9 9 10 11 16 20 21 21 22 22 23 23 22 20 21 21 22 22 22 21 21 21 21 20 20 19 18 19 18 15 9 9 5 7 5 12 14 14 13 11 10 10
11 11 11 9 10 11 12 18 20 22 23 22 23 20 18 18 19 20 21 21 22 20 21 21 21 20 19 17 18 19 18 12 9 8 6 5 10 12 13 14 13 10 12
10 12 11 11 10 10 11 13 15 20 21 20 17 19 14 11 14 15 18 20 21 20 20 20 20 20 20 14 14 17 15 8 11 6 5 13 15 13 11 12 15 14 13
12 12 10 11 11 10 9 11 12 11 11 13 14 14 11 12 12 12 13 18 18 21 18 19 18 17 15 10 9 11 7 11 8 9 7 13 16 16 16 13 11 14 16
8 9 10 10 11 10 10 7 6 6 7 8 15 13 11 9 9 8 8 8 10 15 10 13 12 9 13 9 9 9 10 10 7 7 9 11 17 19 17 17 16 14 14
10 10 10 10 10 11 7 7 8 8 8 8 10 14 10 7 9 9 8 9 9 9 11 10 8 11 12 11 11 11 11 10 8 7 9 10 17 19 19 19 17 18 18
10 9 10 10 10 9 10 7 8 8 7 8 9 12 10 9 10 9 9 9 9 10 10 10 10 11 12 12 12 12 12 12 12 8 8 13 16 18 19 19 19 19 19
8 8 8 9 9 9 9 10 7 7 7 8 8 10 12 9 9 9 9 9 9 10 10 10 11 10 11 11 13 13 14 12 12 13 10 12 16 18 20 19 19 19 20
7 7 7 8 7 8 8 7 6 6 7 7 8 10 11 11 11 10 8 8 9 9 12 11 11 11 11 11 14 13 13 14 13 15 13 11 13 15 16 19 19 20 19
8 8 7 6 7 7 7 7 6 7 7 7 7 7 12 12 12 10 8 9 10 9 9 10 10 11 11 12 12 12 13 14 16 16 14 12 11 11 13 17 17 18 19
7 7 7 7 8 7 7 6 6 7 6 6 6 7 10 10 11 10 8 9 12 10 9 10 10 11 12 12 12 13 13 13 14 14 16 16 14 12 9 14 14 14 17
7 7 6 6 7 6 4 3 3 4 5 5 6 7 9 8 10 9 7 9 10 9 10 10 13 11 12 13 13 14 11 13 12 12 12 10 10 10 9 11 10 8 7
6 6 6 6 7 5 4 4 3 5 5 5 6 8 9 9 10 10 8 9 8 9 10 11 11 13 11 12 13 13 12 13 10 9 8 9 10 7 10 10 7 8 9
7 6 6 6 6 6 4 4 3 5 4 5 5 7 9 10 10 9 10 9 10 9 11 11 12 11 10 10 10 13 9 12 6 11 13 11 10 8 10 12 11 12 10
9 7 6 5 5 6 6 3 3 1 3 3 6 6 8 10 9 9 10 9 10 9 8 11 11 13 11 11 10 7 8 6 15 7 12 12 10 10 13 13 13 12 14
10 8 6 5 5 5 5 5 6 5 6 5 7 7 8 9 9 9 9 9 10 8 10 9 9 10 11 11 9 8 12 14 8 13 6 12 15 14 13 11 13 15 15
10 8 6 5 4 4 5 5 5 6 5 6 6 10 10 9 9 9 10 11 11 9 10 12 12 12 10 11 11 10 12 12 14 14 18 13 12 11 12 13 14 13 15
10 8 6 5 4 4 4 5 5 6 7 7 8 8 7 8 8 10 11 11 11 11 12 12 13 14 13 13 12 13 12 12 11 14 16 17 17 13 13 13 14 13 13
Wind_Direction
325 323 328 35 41 55 59 57 57 54 54 58 61 64 66 64 63 58 54 52 49 46 45 46 45 41 41 41 43 40 36 32 31 30 36 49 35 69 94 88 172 101 88
308 320 326 42 46 46 57 55 53 51 50 51 54 57 58 55 52 53 53 50 49 45 42 42 42 41 38 37 34 33 34 37 39 24 0 114 68 32 43 61 7 102 103
328 338 348 39 49 53 53 54 52 50 48 45 47 46 50 53 52 49 44 41 38 38 37 35 35 34 34 30 30 31 30 28 35 23 323 31 61 32 35 25 54 128 112
349 1 6 40 45 48 52 52 51 52 49 51 51 49 50 50 48 45 43 38 35 32 30 29 27 25 23 22 23 22 26 25 10 332 19 15 13 42 12 5 356 181 126
7 15 12 44 47 46 48 52 50 52 52 50 49 49 49 47 47 44 44 40 35 31 27 23 20 18 16 14 9 15 13 9 346 314 6 28 347 39 348 338 281 173 190
23 28 15 42 49 53 55 54 53 54 53 54 51 49 50 47 45 43 41 39 34 30 28 23 18 13 13 7 2 8 6 357 318 342 339 4 337 2 343 325 326 330 245
41 40 34 37 47 52 53 52 52 53 54 53 51 50 48 48 44 41 39 35 32 30 27 24 22 17 13 9 8 7 6 352 332 332 328 325 329 340 332 335 280 270 260
44 48 52 53 44 48 50 50 50 51 48 49 48 48 46 44 42 41 35 33 30 27 25 23 21 18 16 17 17 12 6 355 310 323 332 318 20 333 328 319 306 241 248
49 45 42 40 52 57 46 47 48 49 48 46 47 45 45 44 41 38 36 30 28 25 23 19 17 15 13 14 12 5 351 331 300 331 315 309 12 330 322 325 328 239 242
47 42 42 42 39 45 45 42 44 45 43 41 41 39 37 40 35 37 29 26 24 22 19 16 13 11 6 9 7 0 339 290 344 317 311 0 340 322 318 314 316 280 250
51 39 37 35 42 47 46 43 40 39 39 35 31 33 36 33 26 27 26 21 21 16 15 13 11 8 359 0 4 351 321 350 333 331 319 15 333 319 309 309 305 303 268
48 41 37 40 43 45 45 39 42 42 42 35 30 30 28 27 24 15 20 16 15 9 9 6 7 7 3 354 350 343 346 337 331 327 318 357 335 327 319 301 290 294 293
71 58 46 50 47 48 49 43 40 40 37 33 30 27 25 24 17 18 12 9 5 4 5 359 359 4 354 352 346 338 333 329 319 316 314 343 327 326 321 315 300 279 284
69 59 51 51 54 53 52 51 50 44 40 35 32 25 21 19 16 12 11 6 4 360 356 355 349 344 341 341 337 331 327 321 316 307 304 319 317 313 313 313 305 294 281
80 66 56 52 53 53 55 52 49 45 41 38 34 27 19 17 11 2 4 1 360 353 353 347 344 339 335 334 330 324 320 315 311 307 305 302 300 302 301 301 302 298 287
95 79 67 60 58 59 58 57 52 47 39 37 36 27 23 16 9 2 359 360 357 351 346 341 337 335 328 328 323 321 313 307 304 301 299 298 295 294 294 292 290 292 294
95 87 74 70 59 61 60 56 53 46 41 37 30 29 21 16 5 360 356 356 353 343 339 338 335 334 326 326 318 317 313 311 304 299 296 293 292 281 281 290 288 288 287
105 88 74 63 60 59 56 46 46 38 39 33 27 21 16 15 7 356 353 352 346 341 340 340 337 331 329 325 320 316 314 306 300 296 293 288 288 293 291 283 289 290 288
114 100 82 66 54 47 47 50 49 43 39 33 26 20 14 11 5 356 354 350 345 342 342 341 337 332 325 321 318 315 304 298 299 297 291 288 286 282 285 289 283 283 280
120 106 93 69 46 43 48 58 55 47 31 30 22 17 8 5 2 354 350 347 344 337 337 339 334 331 324 323 319 304 308 296 287 283 291 292 289 304 328 329 324 304 324
135 122 93 78 57 42 35 15 16 15 14 15 12 2 1 357 356 348 346 341 341 335 330 328 327 326 324 327 317 320 300 284 291 297 321 315 309 318 323 326 327 338 332
152 133 109 88 63 51 39 24 2 347 2 348 348 349 355 350 349 343 338 332 332 327 325 328 329 323 318 332 321 306 325 313 89 327 301 285 302 310 314 316 321 315 321
167 149 121 97 78 53 31 22 357 323 311 331 346 337 338 333 335 332 327 321 319 318 315 319 321 318 316 314 312 305 314 306 324 274 319 294 298 317 306 307 306 310 308
163 148 132 112 82 59 32 19 8 353 338 342 321 320 322 323 319 316 313 313 311 308 305 307 307 308 302 299 299 282 276 287 298 306 298 313 298 292 302 304 307 303 300
159 157 142 131 100 68 38 13 350 336 320 318 313 317 318 317 318 317 318 317 313 311 307 304 302 299 293 290 290 293 283 281 277 276 291 288 289 292 296 295 296 294 299
157 157 154 136 98 53 15 351 330 319 321 315 318 314 315 315 317 318 322 316 310 306 305 305 300 293 288 283 281 280 278 278 280 284 286 292 291 294 290 288 289 286 291